Location: Peterborough
(44.3091°N, 78.3197°W)
Time: 10:12:46
(UTC-04:00)

A-11 Canister half - Pass Details

Date: 12 September 2024
Orbit: 1515 x 1684 km, 47.2° (Epoch: 02 October)

Event Time Altitude Azimuth Distance (km) Brightness Sun altitude
Rises 02:01:30 0° 292° (WNW) 4,661 11.6 -40.3°
Reaches altitude 10° 02:04:32 10° 290° (WNW) 3,678 11.0 -40.2°
Enters shadow 02:05:50 15° 289° (WNW) 3,267 10.7 -40.1°
Exits shadow 02:25:37 - 125° (SE) 4,558 11.4 -38.8°
Sets 02:26:11 0° 125° (SE) 4,741 11.5 -38.8°
